RH
89 88 85 87 88 88 87 83 80 74 71 68 66 64 60 58 55 55 53 47 43 40 41 38 33 41 63 86 98 100 99 100 100 99 100 89 73 65 64 68 80 92 92 80 64 50 42 44 53 61 68 69
78 77 75 75 74 74 72 69 68 65 63 61 59 56 53 50 45 42 39 36 32 28 26 23 21 23 41 72 92 97 96 95 95 96 92 74 57 46 42 52 77 94 86 71 52 34 29 33 45 61 68 71
75 73 71 70 69 69 68 67 66 64 62 59 56 52 47 44 40 37 33 29 26 23 18 14 15 16 27 47 68 80 78 78 83 81 68 47 33 21 13 20 48 76 76 60 41 27 26 29 42 57 63 69
74 72 71 69 69 68 67 66 64 62 59 55 51 46 42 39 35 31 26 23 18 15 11 7 7 8 12 19 35 51 50 51 55 48 33 19 12 6 5 5 13 33 47 51 43 33 31 35 48 54 53 59
72 71 70 69 68 67 66 64 61 59 55 51 45 40 37 33 29 24 18 14 11 9 6 5 3 3 5 5 11 22 23 23 23 18 13 9 6 3 5 7 8 10 20 36 39 31 28 37 48 48 46 45
71 70 69 69 67 65 63 61 58 54 49 44 38 34 30 26 21 16 11 9 7 5 4 3 3 3 4 4 4 5 6 7 7 8 9 7 5 4 4 5 11 15 20 30 34 29 27 37 43 41 42 35
71 69 68 67 65 62 59 56 52 46 41 36 32 28 23 19 15 10 7 5 4 4 4 3 4 3 3 4 4 3 3 4 5 5 5 5 3 4 9 15 23 33 42 44 39 33 32 40 43 41 41 33
69 67 66 64 61 57 53 48 43 38 34 30 26 22 17 13 10 7 5 4 4 3 4 3 3 4 3 4 4 4 4 3 3 4 5 6 13 23 33 37 37 42 52 55 44 34 38 46 49 47 45 40
67 65 63 60 55 50 46 41 36 32 27 23 20 16 11 8 6 5 4 4 4 4 4 3 4 5 4 4 4 4 4 6 12 19 20 20 31 43 46 42 39 46 54 58 48 37 42 46 46 46 44 43
65 63 59 54 48 43 38 34 30 25 21 18 14 11 8 5 5 4 4 4 4 4 4 3 7 9 6 6 6 6 11 21 33 42 39 34 39 42 41 41 40 49 56 57 51 37 36 38 41 45 44 46
63 59 53 46 42 37 32 28 24 20 16 12 9 7 6 5 5 5 6 5 4 4 4 5 10 12 9 10 11 14 21 34 45 50 47 38 35 37 40 44 42 44 49 51 50 38 33 39 46 50 48 49
60 53 47 40 37 32 27 23 19 15 11 9 7 6 5 5 6 7 6 6 5 6 5 6 12 14 13 14 17 22 28 38 46 45 46 41 33 33 38 43 42 39 42 49 52 44 38 44 49 51 48 45
53 47 42 36 31 26 23 20 15 11 9 7 6 5 5 5 6 7 6 6 7 7 6 7 12 17 16 16 19 26 29 33 39 36 37 41 32 28 31 36 39 39 45 54 56 45 38 42 44 46 45 40
47 42 37 32 27 22 20 17 12 9 8 6 6 6 6 6 6 6 7 8 7 7 8 8 13 19 18 18 18 23 25 23 29 30 28 32 30 27 31 33 37 41 46 54 55 43 36 38 39 41 43 40
43 38 33 28 24 20 17 14 11 9 7 6 7 8 8 7 6 6 7 8 7 8 10 10 13 18 19 20 18 17 20 19 22 24 18 21 30 34 36 35 36 42 44 49 52 43 34 35 38 40 43 44
39 34 30 25 21 17 14 11 9 7 7 8 10 9 9 8 7 7 8 8 8 8 11 13 15 18 19 20 20 16 17 17 18 22 23 27 36 38 37 34 35 41 44 46 48 41 34 34 39 42 42 42
35 30 27 22 18 14 11 10 8 7 10 13 12 10 9 8 8 8 9 9 9 9 11 14 18 20 19 20 19 16 17 20 22 31 41 44 42 39 34 31 34 41 43 43 46 41 34 33 38 41 41 41
31 27 25 19 15 13 10 8 8 11 15 16 13 10 10 9 9 9 9 10 9 12 15 16 19 19 19 19 17 19 23 28 32 37 46 50 45 40 35 34 38 43 42 42 45 42 33 32 37 39 41 41
28 24 22 17 13 13 11 8 11 16 18 17 14 11 10 10 11 10 10 10 11 14 17 19 19 17 17 18 18 23 29 34 37 41 45 44 43 40 38 40 41 41 41 42 45 43 37 33 34 36 40 43
24 21 19 15 13 14 12 10 13 18 18 15 13 12 11 12 11 12 11 10 11 12 14 18 19 16 17 21 25 28 30 34 39 46 43 31 34 40 40 40 39 38 39 41 44 44 41 37 35 34 37 41
21 18 17 13 11 14 16 18 20 19 16 14 15 14 13 13 12 12 12 11 11 11 12 15 16 17 20 26 31 29 29 33 38 43 41 30 29 36 38 37 34 34 37 38 41 42 42 41 37 33 34 38
19 16 14 11 10 11 17 28 35 27 18 16 16 16 15 14 13 13 13 12 11 12 13 15 17 19 24 28 31 30 28 29 30 33 38 37 35 36 35 34 30 31 37 38 38 38 38 40 38 35 33 35
16 13 11 10 11 14 19 30 37 33 27 24 19 18 17 15 15 13 12 12 13 16 16 18 20 22 25 28 28 28 26 22 24 28 34 38 41 42 34 29 31 30 35 40 40 39 36 36 39 39 33 30
17 16 17 18 21 27 31 31 31 30 29 29 26 23 19 17 15 14 13 13 15 20 22 21 22 25 28 29 26 25 24 22 24 30 37 37 40 45 36 28 28 28 37 43 38 37 36 34 32 33 32 27
24 28 31 34 37 39 39 34 30 29 24 23 25 24 21 19 17 16 15 15 18 24 27 25 23 26 28 28 26 24 23 23 24 30 39 38 35 41 40 34 30 31 40 38 28 29 32 33 31 30 30 26
33 36 36 36 40 43 44 43 38 32 23 17 18 20 21 21 19 18 17 17 20 24 28 28 25 23 24 26 27 25 21 20 21 24 35 40 34 35 38 40 41 38 40 35 29 27 22 21 28 33 30 26
32 29 26 25 31 37 40 40 32 22 17 15 16 18 19 20 21 22 21 20 21 23 25 26 26 23 21 23 25 25 23 20 21 23 31 39 38 37 38 41 44 41 44 50 42 29 23 21 23 24 21 23
20 16 17 20 23 24 25 25 20 16 17 17 17 19 20 20 22 25 26 24 22 23 22 22 23 23 21 21 22 24 23 21 22 25 30 38 40 41 43 46 47 42 42 52 50 36 28 25 23 22 22 27
13 12 16 19 22 25 26 27 27 27 28 26 25 25 22 21 21 25 29 27 25 24 23 21 21 21 22 21 21 23 23 23 24 25 29 36 41 42 47 54 56 50 39 36 46 54 48 34 28 29 32 35
13 12 15 22 30 33 33 34 33 34 37 37 36 30 23 22 21 23 27 27 26 25 24 22 22 22 22 22 23 23 23 24 25 25 27 31 38 42 48 57 61 60 51 38 37 51 58 48 39 45 47 43
14 19 25 32 36 35 32 32 34 38 39 38 35 29 24 23 23 22 24 25 25 25 23 22 22 22 23 24 24 25 24 25 26 28 28 28 34 41 47 59 66 65 61 56 50 47 51 52 51 57 58 51
Wind_Speed
18 17 17 17 17 17 17 16 16 16 16 16 16 16 16 16 16 17 17 17 17 17 18 18 18 18 19 20 20 21 21 20 20 20 21 21 20 19 19 19 21 22 23 22 22 21 20 20 21 22 20 19
15 14 14 15 15 15 15 15 15 15 15 16 16 16 15 16 15 16 16 17 17 17 17 17 18 18 18 19 20 20 20 20 20 20 21 21 19 19 19 19 21 22 23 23 23 22 21 21 22 23 22 21
15 15 15 15 15 15 15 15 15 15 15 15 15 15 15 15 15 16 16 16 16 17 18 18 18 18 18 18 19 19 20 20 20 20 20 20 20 19 18 19 20 22 23 24 24 24 23 24 24 23 22 21
16 16 16 15 15 15 15 15 15 15 15 15 15 15 15 15 16 16 17 17 18 19 19 19 18 18 18 17 18 18 19 19 20 20 20 19 19 19 19 20 21 23 25 25 26 26 26 25 24 23 21 20
18 17 16 16 16 15 15 15 15 14 14 14 15 15 15 16 17 19 19 19 19 20 20 19 18 18 18 18 18 18 18 18 18 19 19 19 19 20 20 22 23 25 27 27 27 27 27 26 24 22 21 19
18 17 16 16 16 16 15 15 14 14 15 15 16 17 17 19 20 21 20 20 19 20 19 19 19 19 19 19 18 18 18 18 19 19 19 19 19 20 21 23 25 26 26 27 27 27 27 25 23 22 21 19
18 18 17 17 16 16 15 15 15 15 16 16 18 19 19 20 20 20 20 19 19 19 20 20 20 20 20 20 19 19 18 18 19 20 19 20 20 22 24 25 24 24 23 23 24 24 24 23 21 21 20 19
19 18 17 17 17 16 16 16 16 17 17 18 19 20 20 20 20 20 20 19 20 20 21 21 22 21 21 21 21 21 20 21 22 23 22 23 24 24 23 23 23 22 21 20 22 22 21 19 19 19 19 19
19 18 18 18 17 17 17 17 18 18 19 20 20 21 21 21 20 20 20 20 21 22 22 22 23 24 24 24 24 24 24 24 25 24 23 24 23 21 21 21 23 22 20 19 19 20 19 18 18 19 19 19
18 18 18 18 18 18 18 18 19 20 20 21 21 22 22 21 21 21 21 22 23 23 23 24 25 25 25 25 25 25 26 25 22 19 18 20 19 19 21 21 22 21 19 18 18 19 20 20 19 18 18 18
18 18 18 19 18 18 19 20 20 21 21 22 22 21 21 21 22 22 23 23 23 24 24 25 25 25 25 25 25 25 25 23 18 15 15 17 18 19 19 19 21 21 19 19 18 19 20 19 18 17 17 16
19 19 20 19 19 20 20 20 22 22 23 23 22 21 21 22 23 24 24 24 24 24 25 26 25 25 24 24 24 24 24 21 17 16 16 16 18 19 18 18 19 20 19 18 17 17 17 16 16 15 16 17
20 20 20 20 20 21 21 21 23 23 23 22 21 21 22 23 24 24 24 24 24 24 25 26 25 25 24 24 24 23 23 22 19 19 19 17 18 19 19 18 16 16 17 15 15 15 16 15 15 16 17 20
21 21 21 21 21 22 22 23 23 23 22 22 22 23 23 24 24 24 24 24 25 25 25 26 25 24 24 24 24 24 24 24 22 21 21 19 17 17 16 15 14 14 14 14 15 16 17 17 17 19 19 21
22 22 22 22 22 22 23 23 23 23 23 23 24 24 24 24 24 24 24 24 25 25 25 25 25 24 23 23 24 25 25 25 24 22 22 20 17 15 13 13 14 13 13 14 14 16 18 19 19 19 18 18
22 22 22 22 23 23 23 23 23 24 24 25 25 25 24 24 24 24 24 24 25 25 25 25 24 23 23 23 24 25 26 25 25 23 21 19 16 13 13 14 16 14 13 13 14 16 18 19 18 17 16 16
22 23 23 23 23 23 23 23 24 25 25 26 25 25 24 24 24 24 24 24 25 25 25 25 24 23 23 23 24 25 27 26 24 22 18 15 13 13 15 15 15 13 12 12 13 16 17 16 15 15 15 16
23 23 23 23 24 24 24 24 25 26 26 26 25 25 24 24 24 23 23 23 24 24 24 24 23 23 23 24 24 25 25 25 24 21 17 13 12 13 15 14 13 12 11 12 12 13 15 14 13 13 15 16
23 23 23 24 25 25 24 25 25 25 26 26 25 24 24 23 23 23 23 23 24 24 24 23 23 24 24 24 25 24 23 23 23 20 18 17 14 13 14 12 11 10 10 11 11 10 11 12 11 12 14 15
23 24 24 24 26 25 25 25 25 25 26 26 25 24 23 23 23 23 24 24 24 24 24 24 24 24 25 25 23 23 23 23 21 18 19 23 20 14 13 12 11 10 10 9 8 8 7 9 12 13 14 15
24 24 24 25 26 26 26 25 25 25 26 26 25 24 23 22 23 23 24 24 24 24 25 25 25 25 25 24 22 22 24 23 22 21 21 25 24 17 13 12 12 10 9 7 6 6 6 7 10 12 14 14
24 24 24 24 25 25 26 25 23 23 25 25 24 24 23 22 22 23 24 24 25 25 25 25 25 25 25 24 23 22 23 24 25 26 24 23 22 19 15 12 12 11 8 6 5 4 5 6 8 10 13 14
25 25 24 25 25 24 25 25 23 23 24 23 23 23 23 23 22 22 23 24 25 25 24 25 24 24 25 24 24 23 23 24 26 27 26 23 20 18 17 14 10 8 7 5 3 3 3 5 7 8 10 12
25 24 24 24 23 23 23 24 24 24 24 23 23 23 22 23 23 22 23 24 25 24 23 23 24 24 25 24 24 24 24 25 24 24 22 20 20 18 18 18 11 6 5 4 4 0 2 3 8 11 9 10
23 22 20 20 20 21 22 22 22 23 23 23 23 23 23 23 23 23 23 24 24 23 22 22 22 23 24 24 24 24 25 25 24 24 19 14 17 19 18 19 17 10 5 5 3 1 0 2 4 10 9 8
20 18 18 20 20 21 20 19 19 21 22 22 22 23 23 23 23 23 23 23 23 22 22 21 22 23 24 23 23 23 25 26 25 25 21 14 12 16 17 17 20 18 9 5 5 3 2 1 2 5 6 5
21 21 22 23 24 23 21 20 21 23 22 21 21 21 22 23 23 22 21 22 22 22 22 22 22 22 23 23 22 23 24 25 25 25 24 19 14 12 13 15 20 24 16 9 7 4 3 5 2 3 6 9
24 25 25 26 25 25 25 25 25 24 22 21 20 19 20 21 22 21 21 21 21 22 22 22 22 22 22 23 24 23 24 24 25 24 23 22 19 15 12 13 18 24 24 18 11 4 2 2 2 3 8 15
26 27 27 28 27 26 24 23 21 19 18 18 18 18 18 19 20 21 20 19 20 21 21 21 22 22 22 23 24 24 24 24 24 23 23 22 21 18 14 10 12 18 25 26 20 11 4 1 2 3 8 13
27 27 28 28 24 21 18 16 14 14 15 15 15 17 18 19 19 20 20 19 19 19 20 20 20 21 21 22 23 24 24 24 23 23 23 23 21 19 16 10 9 13 18 22 22 19 12 7 5 2 8 8
27 26 24 20 17 15 15 16 15 15 17 17 18 19 19 19 19 19 20 19 19 19 20 20 19 19 20 21 22 22 23 23 23 22 22 23 22 19 17 13 10 10 11 13 15 17 14 11 10 7 6 3
Wind_Direction
99 98 99 98 97 94 91 89 85 83 80 77 74 71 67 63 59 55 51 47 43 39 37 36 35 35 35 35 35 35 34 32 31 31 31 32 32 32 34 35 35 34 34 33 33 34 35 38 40 43 43 38
105 105 106 105 103 99 95 92 88 85 82 78 74 69 64 60 56 51 47 44 40 36 35 35 35 35 36 36 37 36 36 35 34 34 34 34 34 36 37 38 38 36 36 36 36 37 39 42 44 44 43 40
109 108 108 106 104 100 97 93 89 85 81 77 72 67 62 58 53 49 45 42 39 37 37 37 37 39 38 38 39 38 37 37 36 37 36 35 36 38 40 41 41 39 38 39 38 39 40 43 44 43 41 39
112 110 109 107 104 100 96 91 87 83 78 74 69 65 60 55 51 47 46 44 42 41 40 40 40 42 43 42 42 41 41 41 40 39 38 37 38 41 45 47 48 47 44 41 40 40 42 43 42 41 40 38
113 111 109 106 102 98 94 89 85 80 75 71 66 61 56 51 49 48 47 46 45 44 44 45 45 47 50 49 48 48 46 46 45 44 43 42 43 45 48 50 50 51 49 45 43 42 44 44 41 39 39 38
114 112 109 105 101 95 92 87 81 76 71 68 63 58 53 51 50 50 50 49 49 49 50 52 53 53 55 55 53 52 52 52 52 51 50 49 50 50 53 55 53 51 48 45 44 43 44 44 41 39 39 38
115 113 109 104 99 93 89 83 78 74 69 64 60 57 54 53 53 54 55 53 54 55 58 59 59 59 58 58 56 56 57 59 60 58 57 58 58 58 57 56 53 48 43 40 40 41 41 42 40 39 38 36
114 111 107 102 97 92 87 82 77 72 67 63 61 59 57 56 56 57 59 58 59 60 61 61 60 59 58 59 58 59 61 63 64 60 58 59 57 54 51 49 48 45 40 37 37 37 37 37 35 34 34 32
113 109 105 100 96 91 87 82 77 72 68 65 63 62 61 59 59 61 62 63 63 63 63 62 59 58 58 59 58 59 61 61 59 53 48 49 49 46 46 47 47 45 40 37 34 33 34 33 33 32 32 31
114 111 105 101 97 93 88 82 78 74 70 67 65 66 65 65 66 66 66 66 66 65 64 63 61 58 59 60 59 59 58 55 50 43 37 40 43 46 50 50 47 44 39 38 36 35 38 37 35 33 30 29
117 112 106 101 98 93 87 83 79 76 73 70 69 69 71 71 71 71 69 68 67 67 66 66 64 61 61 60 59 57 55 50 41 37 35 37 44 49 50 49 47 45 43 43 43 40 40 37 33 31 27 24
118 112 107 102 96 91 88 84 81 78 76 75 73 73 75 76 74 73 71 70 69 69 69 69 66 63 61 60 57 54 53 48 39 38 41 38 43 50 50 50 48 47 48 46 45 39 34 33 32 30 27 24
116 112 107 101 95 91 88 84 82 81 80 78 78 77 77 77 77 76 74 73 72 72 71 70 67 63 61 59 58 55 53 51 46 46 50 45 44 52 53 55 54 47 48 45 42 37 32 33 33 31 29 27
116 111 106 100 96 92 89 87 86 85 83 83 83 81 80 79 79 79 78 77 75 74 72 70 67 64 62 60 60 60 59 58 55 51 54 53 48 52 55 58 59 47 43 43 40 37 35 35 34 32 29 26
116 111 105 101 98 95 93 90 89 88 87 86 85 84 83 81 82 82 82 81 78 76 73 70 68 65 64 62 62 64 64 63 61 58 59 60 55 53 57 60 58 48 42 43 41 37 36 37 34 31 28 24
117 111 106 103 100 97 95 94 92 91 90 88 86 85 85 84 84 84 83 82 80 77 75 72 69 66 65 63 63 64 65 64 63 61 59 58 54 53 62 65 59 51 45 44 42 39 36 35 33 30 27 24
118 113 109 105 102 100 98 97 95 94 92 89 88 87 87 86 86 86 84 84 82 79 76 73 70 66 65 64 64 65 65 63 60 56 51 47 45 50 62 67 60 49 44 45 43 40 36 33 32 29 28 27
119 116 112 108 105 103 101 100 98 97 94 91 90 89 89 88 87 88 87 85 83 81 76 73 71 68 66 65 64 64 64 60 56 52 44 42 41 47 59 62 55 48 45 46 44 41 37 34 30 29 30 28
122 119 115 112 109 106 104 103 101 98 96 94 93 92 91 91 90 90 89 86 84 81 78 74 72 71 69 67 65 62 63 60 56 49 41 47 50 47 53 54 50 51 48 45 44 42 36 33 32 31 31 28
124 121 117 114 112 109 106 104 102 100 99 98 96 94 93 93 92 92 90 88 85 83 81 76 73 73 71 68 64 61 62 60 56 50 44 51 57 50 46 49 50 52 49 45 41 37 34 32 34 34 31 30
125 123 119 117 115 112 108 104 101 101 101 100 98 96 94 93 94 92 91 89 87 85 82 80 76 74 71 67 64 62 62 61 58 55 49 50 55 54 49 51 53 53 46 39 31 30 31 29 32 36 33 31
127 125 122 120 118 115 113 108 104 102 101 100 99 98 96 95 94 93 92 91 89 86 83 81 78 74 71 67 64 63 62 63 63 61 55 50 50 50 50 54 57 56 46 25 20 26 26 33 35 35 33 33
127 126 123 121 119 116 115 113 111 107 104 101 99 99 98 97 95 94 94 92 89 87 83 81 78 74 71 68 66 64 64 65 65 63 58 51 48 45 46 53 55 57 55 18 356 22 24 41 42 36 32 29
127 125 123 120 118 115 115 115 114 112 110 108 104 100 99 98 96 95 94 92 90 86 83 81 79 75 72 70 68 66 65 65 65 64 57 47 47 45 42 47 48 56 52 337 288 280 47 56 47 43 40 28
130 128 126 124 121 118 117 116 114 113 114 113 111 107 102 99 96 96 94 93 91 88 84 80 78 78 75 72 69 68 67 66 66 66 59 44 42 46 41 38 38 42 25 325 296 243 90 126 65 46 47 33
138 136 136 133 128 124 120 118 117 116 117 116 115 112 107 103 97 96 95 93 92 90 87 83 79 79 79 78 73 70 70 68 68 67 63 51 40 44 44 37 32 33 31 348 338 321 351 62 141 83 73 39
147 145 143 138 133 130 126 126 126 123 121 118 116 114 110 107 102 97 95 93 91 90 90 87 84 81 82 83 79 75 72 70 69 68 65 58 50 44 43 41 34 36 40 11 337 313 11 21 8 99 50 3
151 146 141 136 133 131 127 125 124 121 119 118 116 113 111 109 106 102 96 93 92 90 90 90 90 87 85 84 83 80 76 73 70 68 67 62 57 53 43 38 36 41 47 41 26 2 335 4 13 43 1 335
151 146 140 135 131 128 125 122 119 117 117 117 115 113 112 111 109 106 101 96 94 93 91 91 91 90 88 86 84 83 79 76 74 71 71 67 62 59 52 37 33 44 51 57 62 50 20 4 33 5 327 319
152 147 142 137 135 135 133 129 126 126 126 124 120 117 116 113 111 109 106 103 100 97 95 92 92 90 89 88 85 84 82 81 78 75 75 73 70 66 62 53 37 45 51 58 68 70 74 82 72 348 312 307
153 149 146 143 143 145 143 137 134 136 135 132 129 125 121 116 113 111 109 108 104 100 97 94 93 91 90 89 86 85 84 82 80 77 76 76 76 72 68 66 50 46 49 52 60 68 79 81 75 58 10 342